Location: Budapest
(47.4979°N, 19.0402°E)
Time: 11:51:51
(UTC+02:00)

Envisat - Pass Details

Date: 30 May 2024
Orbit: 762 x 764 km, 98.3° (Epoch: 19 June)

Event Time Altitude Azimuth Distance (km) Brightness Sun altitude
Rises 04:06:50 0° 14° (NNE) 3,239 7.3 -6.8°
Reaches altitude 10° 04:09:09 10° 15° (NNE) 2,308 6.5 -6.5°
Maximum altitude 04:14:15 83° 104° (ESE) 775 3.1 -5.8°
Drops below altitude 10° 04:19:18 10° 192° (SSW) 2,290 5.0 -5.2°
Sets 04:21:36 0° 194° (SSW) 3,212 5.7 -4.9°
